{"data":{"norad_id":41121,"intl_designator":"2015-075A","name":"COSMOS 2513","alt_names":[],"object_type":"PAYLOAD","status":"ACTIVE","operator":null,"country":"CIS","launch_date":"2015-12-13","launch_site_code":"TYMSC","launch_vehicle":null,"mission":null,"orbit_class":"UNKNOWN","rcs_meters":3.362,"size_class":null,"mass_kg":null,"dimensions":null,"purposes":["comms"],"wikipedia_slug":null,"has_3d_model":false,"image_url":null,"decayed_at":null,"tle_current":{"epoch":"2026-09-19T08:48:01.416384Z","epoch_age_seconds":119827,"freshness":"FRESH","line1":"1 41121U 15075A   26262.36668306 -.00000143  00000+0  00000+0 0  9990","line2":"2 41121   0.0472 103.7067 0001317 103.1844   3.6610  1.00272089 39491","mean_motion":1.00272089,"eccentricity":0.0001317,"inclination_deg":0.0472,"raan_deg":103.7067,"arg_perigee_deg":103.1844,"mean_anomaly_deg":3.661,"bstar":0,"rev_number":3949,"period_min":1436.0925501412,"perigee_km":35780.956655195,"apogee_km":35792.062823146,"semimajor_km":42164.64673917,"source":"CELESTRAK","updated_at":"2026-09-20T09:00:35.222071Z"}}}